Location: Unspecified
(0.0000°N, 0.0000°E)
Time: 12:35:32
(UTC+00:00)

Envisat - Pass Details

Date: 16 January 2019
Orbit: 764 x 766 km, 98.2° (Epoch: 22 March)

Event Time Altitude Azimuth Distance (km) Brightness Sun altitude
Rises 18:37:19 0° 151° (SSE) 3,228 6.2 -6.4°
Reaches altitude 10° 18:39:50 10° 141° (SE) 2,300 5.3 -7.0°
Maximum altitude 18:44:21 33° 78° (ENE) 1,260 3.6 -8.1°
Drops below altitude 10° 18:48:52 10° 15° (NNE) 2,292 5.1 -9.1°
Sets 18:51:21 0° 5° (N) 3,215 6.0 -9.7°
